Hourly Data Report for October 25, 2016

All times are specified in Local Standard Time (LST). Add 1 hour to adjust for Daylight Saving Time where and when it is observed.

BAKER LAKE A
NUNAVUT

64°17'56.000" N
96°04'40.000" W
18.60 m
2300503
71926
YBK

Download Data

Hourly Data (October 2016)
Hourly Data Report for October 25, 2016
Temp Definition
°C
Dew Point Temp Definition
°C
Rel Hum Definition
%
Wind Dir Definition
10's deg

Wind Spd Definition
km/h
Visibility Definition
km
Stn Press Definition
kPa
Hmdx Definition


Wind Chill Definition


Weather Definition


TIME
00:00 Legend Double Dagger -4.7 -5.4 95 23 4 24.1 103.04   -6 Cloudy
01:00 Legend Double Dagger -4.3 -4.8 96 36 3 24.1 103.01   -6 Snow
02:00 Legend Double Dagger -3.6 -4.3 95 22 7 24.1 102.99   -7 Snow
03:00 Legend Double Dagger -3.6 -4.4 94 23 10 24.1 102.98   -8 Snow
04:00 Legend Double Dagger -3.4 -3.8 97 24 14 4.8 102.96   -8 Snow,Fog
05:00 Legend Double Dagger -4.1 -4.6 96 26 16 24.1 102.92   -10 LegendNANA
06:00 Legend Double Dagger -3.8 -4.5 95 24 13 24.1 102.91   -9 Snow
07:00 Legend Double Dagger -3.7 -4.5 94 29 5 9.7 102.90   -6 Snow
08:00 Legend Double Dagger -3.9 -4.9 93 25 11 16.1 102.87   -8 Snow
09:00 Legend Double Dagger -3.9 -4.9 93 27 8 32.2 102.83   -7 Snow
10:00 Legend Double Dagger -3.7 -5.0 91 25 4 32.2 102.81   -5 Snow
11:00 Legend Double Dagger -3.8 -5.1 91 31 12 32.2 102.77   -8 Snow
12:00 Legend Double Dagger -3.6 -4.9 91 33 6 24.1 102.75   -6 Snow
13:00 Legend Double Dagger -3.5 -5.1 89 34 4 16.1 102.74   -5 Snow
14:00 Legend Double Dagger -3.1 -4.8 88 36 3 12.9 102.71   -4 Snow
15:00 Legend Double Dagger -4.2 -5.6 90 31 12 16.1 102.68   -9 Snow
16:00 Legend Double Dagger -4.6 -6.0 90 30 10 24.1 102.65   -9 LegendNANA
17:00 Legend Double Dagger -4.9 -6.2 91 30 10 24.1 102.64   -9 LegendNANA
18:00 Legend Double Dagger -5.4 -6.5 92 31 8 24.1 102.60   -9 Cloudy
19:00 Legend Double Dagger -6.7 -7.9 91 36 2 24.1 102.56   -8 LegendNANA
20:00 Legend Double Dagger -6.1 -6.6 96 36 2 24.1 102.52   -7 LegendNANA
21:00 Legend Double Dagger -8.3 -9.5 91 27 3 24.1 102.51   -10 Mainly Clear
22:00 Legend Double Dagger -8.9 -10.0 92 36 3 24.1 102.46   -11 LegendNANA
23:00 Legend Double Dagger -7.0 -8.0 93 36 1 2.0 102.41   -8 Fog

Notes on Data Quality.

Legend

  • E = Estimated
  • M = Missing
  • NA = Not Available
  • ‡ = Partner data that is not subject to review by the National Climate Archives
Date modified: